Regional Weather Roundup
Issued by NWS

Home | Current Version | Previous Version | Text Only | Print | Product List | Glossary On
Versions: 1 2 3 4 5 6 7 8 9 10 11 12 13 14 15 16 17 18 19 20 21 22 23 24 25 26 27 28
000
ASUS44 KLIX 262113
RWRLA
LOUISIANA WEATHER ROUNDUP
NATIONAL WEATHER SERVICE NEW ORLEANS LA
400 PM CDT SUN MAR 26 2017

NOTE: "FAIR" INDICATES FEW OR NO CLOUDS BELOW 12,000 FEET WITH NO
      SIGNIFICANT WEATHER AND/OR OBSTRUCTIONS TO VISIBILITY.
      SKY/WX - SKY CONDITION AND SIGNIFICANT WEATHER.
      TMP - AIR TEMPERATURE.    DP   - DEWPOINT TEMPERATURE.
      RH  - RELATIVE HUMIDITY.  PRES - PRESSURE.
      HX  - HEAT INDEX.         WCI  - WIND CHILL INDEX.

*  THESE STATIONS ARE NOT NWS OR FAA STATIONS AND ARE NOT UNDER
   NWS QUALITY CONTROL.

LAZ040-048-061>063-065-066-069-262200-
SOUTHEAST LOUISIANA

CITY           SKY/WX    TMP DP  RH WIND       PRES   REMARKS
N.O. INTL ARPT MOSUNNY   80  68  66 S15       29.99F
N.O. LAKEFRONT MOSUNNY   82  66  58 S15       30.00F
N.O. DOWNTOWN*   N/A     81  66  60 S13G20    30.01F
RESERVE*       FAIR      83  66  55 S12G17    29.98F
SLIDELL        PTSUNNY   80  66  62 S13       29.99F
BATON ROUGE    MOSUNNY   84  62  47 S12G17    29.95F
BOOTHVILLE     MOSUNNY   78  69  73 VRB6      30.03F
BELLE CHASSE   PTSUNNY   82  67  60 S10       30.00F
BOGALUSA*      NOT AVBL
GALLIANO*      MOCLDY    79  65  62 S7        30.01F
NEW ROADS*       N/A     82  62  51 S9        29.95F
GONZALES*      MOCLDY    82  64  55 S8        29.96F
HAMMOND*       PTSUNNY   81  63  54 SE12      29.98F
HOUMA*         MOSUNNY   79  68  69 S12G17    30.00F
PORT FOURCHON* MOCLDY    77  68  73 SE10      30.01F

$$

LAZ041-044-053-054-262200-
SOUTHWEST LOUISIANA

CITY           SKY/WX    TMP DP  RH WIND       PRES   REMARKS
LAKE CHARLES   PTSUNNY   78  67  68 S13       29.93F
LAFAYETTE      MOSUNNY   82  65  56 S14       29.96F
PATTERSON      PTSUNNY   77  67  71 S10       29.99F
SALT POINT       N/A     76  69  79 VRB5      29.97F
NEW IBERIA     MOSUNNY   79  67  66 S12       29.97F
CHENAULT AIRPK PTSUNNY   77  66  69 S15G21    29.94F

$$

LAZ027-028-262200-
CENTRAL LOUISIANA

CITY           SKY/WX    TMP DP  RH WIND       PRES   REMARKS
FORT POLK      MOSUNNY   82  82 100 S15       29.91S HX  97
ALEXANDRIA INT SUNNY     80  64  58 S13       29.90F
ALEXANDRIA     MOSUNNY   82  63  52 SE10      29.92F

$$

LAZ001-002-262200-
NORTHWEST LOUISIANA

CITY           SKY/WX    TMP DP  RH WIND       PRES   REMARKS
SHREVEPORT     MOSUNNY   85  60  42 S16       29.86F
BARKSDALE AFB  MOSUNNY   81  62  52 S16G22    29.86F
DTN SHREVEPORT MOSUNNY   84  60  44 SE13      29.87F

$$

LAZ014-016-262200-
NORTHEAST LOUISIANA

CITY           SKY/WX    TMP DP  RH WIND       PRES   REMARKS
MONROE         SUNNY     82  56  40 E7        29.92F
TALLULAH       SUNNY     83  53  35 VRB6      29.94F

$$





USA.gov is the U.S. government's official web portal to all federal, state and local government web resources and services.